Regional Weather Roundup
Issued by NWS

Home | Current Version | Previous Version | Text Only | Print | Product List | Glossary Off
Versions: 1 2 3 4 5 6 7 8 9 10 11 12 13 14 15 16 17 18 19 20 21 22 23 24 25 26 27 28 29 30 31 32 33 34 35 36 37 38 39 40 41 42 43 44 45 46 47 48 49 50

000
ASUS43 KMPX 281501
RWRMN
WEATHER ROUNDUP FOR MINNESOTA
NATIONAL WEATHER SERVICE TWIN CITIES/CHANHASSEN MN
1000 AM CDT TUE MAR 28 2017


NOTE: "FAIR" INDICATES FEW OR NO CLOUDS BELOW 12,000 FEET WITH NO
SIGNIFICANT WEATHER AND/OR OBSTRUCTIONS TO VISIBILITY. N/A MEANS
CURRENT SKY AND/OR WEATHER CONDITIONS ARE NOT AVAILABLE.

MNZ060>063-068>070-281600-
   Twin Cities Metro

CITY           SKY/WX    TMP DP  RH WIND       PRES   REMARKS
TWIN CITIES    MOSUNNY   47  37  68 CALM      30.14R
ST PAUL        SUNNY     45  39  79 CALM      30.16R
CRYSTAL        SUNNY     47  34  60 VRB3      30.14R
BLAINE         SUNNY     46  37  71 N3        30.14R
LAKEVILLE      SUNNY     46  39  76 CALM      30.14R
EDEN PRAIRIE   SUNNY     49  38  65 CALM      30.13R
SOUTH ST PAUL  SUNNY     46  38  73 CALM      30.15S
LAKE ELMO      FAIR      45  37  76 SE3       30.16R
$$
MNZ001>005-007-008-013>017-022>024-027-028-281600-
   Northwest Minnesota

CITY           SKY/WX    TMP DP  RH WIND       PRES   REMARKS
BEMIDJI        CLOUDY    39  31  71 CALM      30.14R
HALLOCK        MOSUNNY   37  32  81 N3        30.20R
ROSEAU         SUNNY     39  32  75 NE5       30.20R
WARROAD        SUNNY     37  30  75 NE6       30.21R
THIEF RVR FALL   N/A     42  32  67 NE8       30.18R
CROOKSTON      CLOUDY    36  36 100 N6        30.18S
FOSSTON        MOSUNNY   41  37  87 NE5       30.16R
DETROIT LAKES  SUNNY     43  37  81 N5        30.15R
MOORHEAD       FOG       30  30 100 N6        30.18R VSB<1/4 WCI  24
PARK RAPIDS    SUNNY     46  29  51 CALM      30.13R
MAHNOMEN       CLOUDY    40  36  83 CALM      30.15R
$$
MNZ006-009>011-018-025>026-281600-
   North Central Minnesota

CITY           SKY/WX    TMP DP  RH WIND       PRES   REMARKS
BAUDETTE       SUNNY     44  29  55 CALM      30.17R
FLAG ISLAND    MOSUNNY   34  27  75 N7        30.19S WCI  28
INTL FALLS     SUNNY     41  28  60 NE3       30.16R
WASKISH        SUNNY     45  32  61 CALM      30.16S
BIG FORK       MOSUNNY   45  28  53 N3        30.13S
LONGVILLE      SUNNY     45  30  57 CALM      30.13S
GRAND RAPIDS   PTSUNNY   41  32  70 N5        30.16R
CRANE LAKE     MOSUNNY   39  30  70 CALM      30.17R
ORR            SUNNY     43  27  52 CALM      30.12S
COOK           PTSUNNY   41  28  60 CALM      30.14S
WALKER         CLOUDY    37  30  75 SW3       30.14R
$$
MNZ012-019>021-037-281600-
   Northeast Minnesota

CITY           SKY/WX    TMP DP  RH WIND       PRES   REMARKS
DULUTH         MOSUNNY   47  34  60 SW3       30.13R
ELY            MOSUNNY   39  28  65 CALM      30.14R
HIBBING        SUNNY     39  34  82 CALM      30.13S
EVELETH        SUNNY     43  33  68 CALM      30.15R
DULUTH HARBOR  SUNNY     39  36  87 CALM      30.17R
TWO HARBORS    SUNNY     50  37  62 S6        30.13R
SILVER BAY     SUNNY     48  34  57 S3        30.12R
GRAND MARAIS     N/A     39  31  72 E5        30.14R
G MARAIS ARPRT PTSUNNY   45  25  45 NW3       30.12R
$$
MNZ029>031-032-039>041-046>048-054>057-064-281600-
   West Central Minnesota

CITY           SKY/WX    TMP DP  RH WIND       PRES   REMARKS
FERGUS FALLS   CLOUDY    43  37  81 CALM      30.18R
WHEATON        FOG       34  32  93 NW6       30.18S VSB<1/4 WCI  29
MORRIS         SUNNY     45  36  70 CALM      30.14R
ALEXANDRIA     SUNNY     49  38  65 CALM      30.15R
ELBOW LAKE     FAIR      42  37  82 CALM      30.15R
WADENA         SUNNY     43  34  70 CALM      30.13S
GLENWOOD       SUNNY     52  37  58 CALM      30.14S
APPLETON       MOSUNNY   48  37  66 CALM      30.14R
BENSON         SUNNY     54  34  47 CALM      30.15R
ORTONVILLE     SUNNY     39  34  81 N7        30.15R
MADISON        MOSUNNY   48  39  71 CALM      30.14R
WILLMAR        FAIR      52  39  62 E3        30.15R
$$
MNZ033>034-036-042>043-049>051-058-059-281600-
   Central Minnesota

CITY           SKY/WX    TMP DP  RH WIND       PRES   REMARKS
ST CLOUD       SUNNY     46  37  71 CALM      30.14R
SAUK CENTRE    FAIR      44  36  73 CALM      30.14S
PAYNESVILLE      N/A     47  36  64 CALM      30.14S
AITKIN         SUNNY     48  34  57 CALM      30.13R
PINE RIVER     SUNNY     45  34  65 CALM      30.16S
BRAINERD       SUNNY     45  34  65 SW5       30.14R
STAPLES        SUNNY     41  36  81 CALM      30.13S
LONG PRAIRIE   FAIR      46  36  66 CALM      30.15R
LITTLE FALLS   SUNNY     45  34  65 CALM      30.14S
LITCHFIELD     SUNNY     48  39  71 CALM      30.14S
BUFFALO        SUNNY     45  35  67 CALM      30.15F
MAPLE LAKE     SUNNY     46  38  72 CALM      30.15S
HUTCHINSON     SUNNY     47  38  70 E5        30.14S
$$
MNZ037-044-045-052-053-281600-
   East Central Minnesota

CITY           SKY/WX    TMP DP  RH WIND       PRES   REMARKS
PRINCETON      SUNNY     46  36  66 CALM      30.15S
MORA           SUNNY     43  34  70 CALM      30.17R
CAMBRIDGE      SUNNY     46  34  61 CALM      30.13S
RUSH CITY      SUNNY     43  34  71 CALM      30.16R
MOOSE LAKE     SUNNY     43  32  65 CALM      30.13S
CLOQUET        SUNNY     46  32  57 CALM      30.14R
MCGREGOR       SUNNY     45  36  70 CALM      30.15R
$$
MNZ071>073-080-081-089-090-097-098-281600-
   Southwest Minnesota

CITY           SKY/WX    TMP DP  RH WIND       PRES   REMARKS
MONTEVIDEO     SUNNY     52  39  62 CALM      30.15R
GRANITE FALLS  SUNNY     51  40  66 CALM      30.15R
CANBY          CLOUDY    46  38  76 CALM      30.15R
MARSHALL       SUNNY     47  39  74 N5        30.14R
REDWOOD FALLS  SUNNY     48  36  63 NE5       30.13R
OLIVIA         SUNNY     50  37  62 E5        30.13R
PIPESTONE      SUNNY     50  37  62 NE5       30.11R
WINDOM         SUNNY     48  39  71 NE3       30.12R
WORTHINGTON    SUNNY     45  40  82 NE7       30.13R
JACKSON        SUNNY     45  39  81 CALM      30.12S
TRACY          SUNNY     48  41  75 CALM      30.13R
SLAYTON        SUNNY     46  42  84 N6        30.12R
$$
MNZ065>067-074>077-082>085-091>093-281600-
   South Central Minnesota

CITY           SKY/WX    TMP DP  RH WIND       PRES   REMARKS
MANKATO        SUNNY     47  37  68 SE6       30.14R
NEW ULM        SUNNY     46  37  71 CALM      30.13R
ST JAMES       SUNNY     45  39  81 CALM      30.14R
FAIRMONT       SUNNY     45  40  82 E6        30.13S
GLENCOE        SUNNY     46  39  76 CALM      30.13S
FARIBAULT      SUNNY     48  39  71 CALM      30.14R
OWATONNA       SUNNY     48  37  66 SE3       30.14R
WASECA         SUNNY     45  37  76 SE5       30.15R
ALBERT LEA     SUNNY     43  43 100 CALM      30.13S
$$
MNZ078>079-086>088-094>096-281600-
   Southeast Minnesota

CITY           SKY/WX    TMP DP  RH WIND       PRES   REMARKS
ROCHESTER      SUNNY    N/A N/A N/A MISG      30.14R
RED WING       FOG       37  36  93 CALM      30.15S VSB<1/4
STANTON        SUNNY     43  38  85 N3        30.13S
DODGE CENTER   SUNNY     41  39  93 E5        30.14R
WINONA         FOG       34  34 100 CALM      30.18R VSB<1/4
AUSTIN         SUNNY     45  39  81 E3        30.13R
PRESTON        SUNNY     43  37  78 E6        30.14R
$$
ABBREVIATIONS USED IN REMARKS
   TC - TEMPERATURES IN CELSIUS
  WCI - WIND CHILL INDEX
   HX - HEAT INDEX
  VSB - VISIBILITY
$$




USA.gov is the U.S. government's official web portal to all federal, state and local government web resources and services.